EW1628 Weather Reports


time (UTC)temp
F
wind
direction
speed
knots
gust
knots
rain 1hr
in
rain 24hr
in
rain mn
in
humidity
%
barometer
mb
20260506202004 73 352 3.5 7.8 0.00 0.00 0.00 60 1018.4
20260506201524 73 337 3.5 7.8 0.00 0.00 0.00 60 1018.5
20260506201003 72 312 2.6 7.8 0.00 0.00 0.00 61 1018.6
20260506200504 71 347 2.6 7.8 0.00 0.00 0.00 63 1018.6
20260506200004 71 7 2.6 7.8 0.00 0.00 0.00 61 1018.6
20260506195504 71 99 1.7 6.1 0.00 0.00 0.00 60 1018.7
20260506195004 71 38 2.6 7.8 0.00 0.00 0.00 60 1018.7
20260506194504 71 5 3.5 8.7 0.00 0.00 0.00 61 1018.8
20260506194003 71 1 3.5 8.7 0.00 0.00 0.00 61 1018.9
20260506193503 71 352 2.6 7.8 0.00 0.00 0.00 62 1019.0
20260506193003 71 41 2.6 7.8 0.00 0.00 0.00 61 1018.9
20260506192504 71 47 3.5 9.6 0.00 0.00 0.00 60 1019.0
20260506192003 71 8 4.3 10.4 0.00 0.00 0.00 62 1019.2
20260506191504 71 333 3.5 10.4 0.00 0.00 0.00 62 1019.2
20260506191004 71 316 2.6 7.0 0.00 0.00 0.00 62 1019.2
20260506190504 71 313 3.5 7.0 0.00 0.00 0.00 63 1019.2
20260506190004 70 305 4.3 7.8 0.00 0.00 0.00 63 1019.2
20260506185524 70 326 2.6 7.8 0.00 0.00 0.00 63 1019.2
20260506185003 70 32 1.7 6.1 0.00 0.00 0.00 64 1019.2
20260506184503 69 62 1.7 6.1 0.00 0.00 0.00 64 1019.3
20260506184003 69 21 2.6 7.0 0.00 0.00 0.00 64 1019.3
20260506183503 69 25 2.6 7.0 0.00 0.00 0.00 65 1019.4
20260506183003 69 34 1.7 4.3 0.00 0.00 0.00 66 1019.4
20260506182503 68 337 2.6 7.0 0.00 0.00 0.00 68 1019.5
20260506182025 68 324 3.5 7.0 0.00 0.00 0.00 67 1019.5
20260506181504 68 309 2.6 7.0 0.00 0.00 0.00 67 1019.4
20260506181004 68 302 1.7 5.2 0.00 0.00 0.00 68 1019.3
20260506180524 67 290 2.6 5.2 0.00 0.00 0.00 72 1019.4
20260506180004 67 276 1.7 4.3 0.00 0.00 0.00 68 1019.4
20260506175503 66 243 2.6 4.3 0.00 0.00 0.00 72 1019.5
20260506175004 66 227 2.6 4.3 0.00 0.00 0.00 69 1019.5
20260506174525 66 212 1.7 4.3 0.00 0.00 0.00 73 1019.5
20260506174003 65 53 1.7 3.5 0.00 0.00 0.00 72 1019.5
20260506173524 65 252 1.7 3.5 0.00 0.00 0.00 72 1019.6
20260506173003 65 238 1.7 5.2 0.00 0.00 0.00 74 1019.6
20260506172504 64 277 1.7 5.2 0.00 0.00 0.00 73 1019.6
20260506172004 64 294 1.7 5.2 0.00 0.00 0.00 73 1019.7
20260506171504 64 306 1.7 5.2 0.00 0.00 0.00 70 1019.6
20260506171003 64 84 1.7 3.5 0.00 0.00 0.00 73 1019.7
20260506170504 64 108 0.9 3.5 0.00 0.00 0.00 76 1019.7
20260506170004 63 101 0.9 3.5 0.00 0.00 0.00 75 1019.8
20260506165504 63 152 1.7 3.5 0.00 0.00 0.00 75 1019.7
20260506165003 62 216 1.7 5.2 0.00 0.00 0.00 74 1019.6
20260506164503 63 211 2.6 5.2 0.00 0.00 0.00 73 1019.7
20260506164003 63 187 1.7 5.2 0.00 0.00 0.00 74 1019.6
20260506163504 63 173 1.7 3.5 0.00 0.00 0.00 76 1019.7
20260506163004 62 166 1.7 2.6 0.00 0.00 0.00 76 1019.7
20260506162504 62 160 2.6 5.2 0.00 0.00 0.00 77 1019.7
20260506162003 62 173 2.6 5.2 0.00 0.00 0.00 78 1019.7
20260506161525 61 155 1.7 5.2 0.00 0.00 0.00 76 1019.8
20260506161004 61 141 2.6 5.2 0.00 0.00 0.00 78 1019.7
20260506160525 61 151 1.7 5.2 0.00 0.00 0.00 78 1019.7
20260506160004 61 143 0.9 3.5 0.00 0.00 0.00 77 1019.7
20260506155504 61 193 1.7 4.3 0.00 0.00 0.00 79 1019.8
20260506155004 60 187 1.7 4.3 0.00 0.00 0.00 79 1019.7
20260506154504 60 115 1.7 5.2 0.00 0.00 0.00 81 1019.8
20260506154004 60 147 1.7 5.2 0.00 0.00 0.00 82 1019.7
20260506153525 59 213 1.7 3.5 0.00 0.00 0.00 84 1019.8
20260506153004 58 204 0.9 3.5 0.00 0.00 0.00 83 1019.9
20260506152504 58 199 0.9 2.6 0.00 0.00 0.00 85 1019.8
20260506152024 58 174 1.7 4.3 0.00 0.00 0.00 86 1019.9
20260506151504 57 144 1.7 4.3 0.00 0.00 0.00 88 1019.9
20260506151003 56 141 0.9 4.3 0.00 0.00 0.00 90 1019.8
20260506150503 56 181 0.9 4.3 0.00 0.00 0.00 90 1019.8
20260506150004 55 200 0.9 3.5 0.00 0.00 0.00 91 1019.8
20260506145525 54 163 0.9 3.5 0.00 0.00 0.00 91 1019.8
20260506145003 54 142 0.9 3.5 0.00 0.00 0.00 92 1019.9
20260506144503 54 119 0.9 2.6 0.00 0.00 0.00 92 1019.8
20260506144025 53 131 0.9 3.5 0.00 0.00 0.00 92 1019.8
20260506143504 53 147 0.9 3.5 0.00 0.00 0.00 92 1019.8
20260506143004 53 174 0.9 1.7 0.00 0.00 0.00 92 1019.8
20260506142504 52 173 0.0 1.7 0.00 0.00 0.00 92 1019.7
20260506142003 52 173 0.9 1.7 0.00 0.00 0.00 92 1019.6
20260506141525 52 173 0.0 1.7 0.00 0.00 0.00 92 1019.5
20260506141003 52 0 0.0 0.0 0.00 0.00 0.00 92 1019.4
20260506140503 52 0 0.0 0.0 0.00 0.00 0.00 92 1019.4
20260506140025 52 173 0.0 0.9 0.00 0.00 0.00 92 1019.2
20260506135503 52 173 0.0 0.9 0.00 0.00 0.00 92 1019.3
20260506135004 52 173 0.0 0.9 0.00 0.00 0.00 92 1019.3
20260506134504 52 173 0.0 0.9 0.00 0.00 0.00 92 1019.2
20260506134004 52 0 0.0 0.0 0.00 0.00 0.00 92 1019.2
20260506133504 52 173 0.0 1.7 0.00 0.00 0.00 92 1019.2
20260506133004 52 173 0.0 1.7 0.00 0.00 0.00 92 1019.2
20260506132504 52 173 0.0 0.9 0.00 0.00 0.00 91 1019.2
20260506132025 52 173 0.0 0.9 0.00 0.00 0.00 91 1019.2
20260506131504 52 173 0.0 0.9 0.00 0.00 0.00 91 1019.1
20260506131025 52 0 0.0 0.0 0.00 0.00 0.00 91 1019.1
20260506130503 52 0 0.0 0.0 0.00 0.00 0.00 91 1019.0
20260506130024 52 0 0.0 0.0 0.00 0.00 0.00 91 1019.0
20260506125503 52 0 0.0 0.0 0.00 0.00 0.00 91 1019.0
20260506125004 52 0 0.0 0.0 0.00 0.00 0.00 91 1018.9
20260506124524 52 0 0.0 0.0 0.00 0.00 0.00 91 1018.9
20260506124004 52 173 0.0 0.9 0.00 0.00 0.00 91 1018.8
20260506123503 52 173 0.0 0.9 0.00 0.00 0.00 91 1018.8
20260506123025 52 173 0.0 0.9 0.00 0.00 0.00 91 1018.9
20260506122504 52 173 0.0 0.9 0.00 0.00 0.00 91 1019.0
20260506122004 52 173 0.0 1.7 0.00 0.00 0.00 92 1018.8
20260506121524 52 173 0.0 1.7 0.00 0.00 0.00 92 1018.8
20260506121004 52 173 0.0 2.6 0.00 0.00 0.00 92 1018.6
20260506120503 52 173 0.0 2.6 0.00 0.00 0.00 92 1018.7
20260506120024 52 0 0.0 0.0 0.00 0.01 0.00 92 1018.6
20260506115525 52 0 0.0 0.0 0.00 0.01 0.00 92 1018.7
20260506115024 52 0 0.0 0.0 0.00 0.01 0.00 92 1018.7
20260506114504 52 0 0.0 0.0 0.00 0.01 0.00 92 1018.7
20260506114003 52 0 0.0 0.0 0.00 0.01 0.00 92 1018.7
20260506113503 52 0 0.0 0.0 0.00 0.01 0.00 91 1018.7
20260506113003 52 0 0.0 0.0 0.00 0.01 0.00 91 1018.5
20260506112503 52 0 0.0 0.0 0.00 0.01 0.00 91 1018.5
20260506112003 52 0 0.0 0.0 0.00 0.01 0.00 91 1018.5
20260506111524 52 0 0.0 0.0 0.00 0.01 0.00 91 1018.5
20260506111004 52 0 0.0 0.0 0.00 0.01 0.00 91 1018.5
20260506110504 52 0 0.0 0.0 0.00 0.01 0.00 91 1018.4
20260506110004 52 0 0.0 0.0 0.00 0.01 0.00 91 1018.3
20260506105503 52 0 0.0 0.0 0.00 0.01 0.00 91 1018.3
20260506105003 52 0 0.0 0.0 0.00 0.01 0.00 91 1018.3
20260506104504 52 173 0.0 1.7 0.00 0.01 0.00 92 1018.3
20260506104004 52 173 0.0 1.7 0.00 0.01 0.00 92 1018.3
20260506103525 52 173 0.0 1.7 0.00 0.01 0.00 92 1018.3
20260506103025 52 173 0.9 1.7 0.00 0.01 0.00 92 1018.2
20260506102503 52 173 0.9 1.7 0.00 0.01 0.00 92 1018.2
20260506102003 52 173 0.0 1.7 0.00 0.01 0.00 92 1018.2
20260506101504 52 173 0.9 1.7 0.00 0.01 0.00 92 1018.2
20260506101003 52 173 0.9 1.7 0.00 0.01 0.00 92 1018.1
20260506100525 51 173 0.0 1.7 0.00 0.01 0.00 92 1018.1
20260506100004 51 0 0.0 0.0 0.00 0.01 0.00 92 1018.1
20260506095525 51 0 0.0 0.0 0.00 0.01 0.00 92 1018.2
20260506095004 51 0 0.0 0.0 0.00 0.01 0.00 92 1018.1
20260506094504 51 0 0.0 0.0 0.00 0.01 0.00 92 1018.2
20260506094004 51 0 0.0 0.0 0.00 0.01 0.00 92 1018.1
20260506093503 51 173 0.0 0.9 0.00 0.01 0.00 92 1018.0
20260506093004 51 173 0.0 0.9 0.00 0.01 0.00 92 1018.1
20260506092504 51 173 0.0 1.7 0.00 0.01 0.00 92 1018.1
20260506092004 51 173 0.9 1.7 0.00 0.01 0.00 92 1018.1
20260506091504 51 173 0.9 1.7 0.00 0.01 0.00 92 1018.1
20260506091003 51 173 0.9 1.7 0.00 0.01 0.00 92 1018.2
20260506090503 51 161 0.9 2.6 0.00 0.02 0.00 92 1018.1
20260506090004 50 114 0.9 2.6 0.00 0.02 0.00 92 1018.1
20260506085525 50 110 0.9 3.5 0.00 0.02 0.00 92 1018.2
20260506085004 50 154 0.9 3.5 0.00 0.02 0.00 92 1018.2
20260506083525 50 207 0.9 2.6 0.00 0.02 0.00 92 1018.1
20260506083004 50 207 0.9 2.6 0.00 0.02 0.00 91 1018.1
20260506082503 50 207 0.0 2.6 0.00 0.03 0.00 91 1018.1
20260506082003 50 207 0.9 2.6 0.00 0.03 0.00 91 1018.1
20260506081503 50 207 0.9 2.6 0.00 0.03 0.00 91 1018.2
20260506081004 50 207 0.0 0.9 0.00 0.05 0.00 91 1018.2
20260506080504 50 207 0.0 1.7 0.00 0.06 0.00 91 1018.2
20260506073504 50 207 0.0 0.9 0.00 0.07 0.00 90 1018.0
20260506073003 50 207 0.0 0.9 0.00 0.08 0.00 90 1017.8
20260506072524 50 0 0.0 0.0 0.00 0.08 0.00 90 1017.7
20260506072025 51 207 0.0 0.9 0.00 0.08 0.00 90 1017.8
20260506071504 51 207 0.0 1.7 0.00 0.09 0.00 90 1017.6
20260506071004 51 207 0.0 1.7 0.00 0.09 0.00 90 1017.5
20260506070524 51 207 0.0 0.9 0.00 0.10 0.00 90 1017.5
20260506062504 52 207 0.0 0.9 0.00 0.13 0.10 87 1017.2
20260506062003 53 207 0.0 0.9 0.00 0.13 0.10 87 1017.3
20260506061504 53 0 0.0 0.0 0.00 0.13 0.10 87 1017.2
20260506061004 53 0 0.0 0.0 0.00 0.14 0.10 86 1017.2
20260506060504 53 0 0.0 0.0 0.00 0.14 0.10 86 1017.1
20260506051003 55 188 0.9 3.5 0.00 0.15 0.10 85 1016.9
20260506050503 55 180 0.9 3.5 0.00 0.15 0.10 85 1016.9
20260506045004 56 211 0.0 0.9 0.00 0.16 0.10 84 1016.8
20260506044503 56 211 0.0 2.6 0.00 0.17 0.10 84 1016.8
20260506044003 56 211 0.9 3.5 0.00 0.17 0.10 84 1016.7
20260506043504 56 196 0.9 3.5 0.00 0.17 0.10 84 1016.6
20260506043003 56 207 1.7 4.3 0.00 0.17 0.10 83 1016.4
20260506042503 56 247 1.7 6.1 0.00 0.17 0.10 83 1016.4
20260506042004 56 243 1.7 6.1 0.00 0.17 0.10 83 1016.4
20260506041504 57 215 0.9 4.3 0.00 0.17 0.10 83 1016.2
20260506041003 57 212 0.9 4.3 0.00 0.17 0.10 82 1016.2
20260506040503 57 215 2.6 5.2 0.00 0.17 0.10 82 1016.2
20260506040004 57 223 1.7 5.2 0.00 0.17 0.10 82 1016.1
20260506035504 57 250 0.9 6.1 0.00 0.17 0.10 82 1016.1
20260506035004 57 251 1.7 6.1 0.00 0.17 0.10 81 1016.1
20260506034503 57 246 2.6 6.1 0.00 0.17 0.10 81 1016.0
20260506034024 57 251 1.7 6.1 0.00 0.17 0.10 81 1015.9
20260506033503 57 255 1.7 5.2 0.00 0.17 0.10 81 1015.8
20260506033004 57 248 2.6 6.1 0.00 0.17 0.10 81 1015.7
20260506032504 57 245 1.7 6.1 0.00 0.17 0.10 80 1015.7
20260506032004 58 240 1.7 5.2 0.00 0.17 0.10 80 1015.6
20260506031524 58 233 2.6 5.2 0.00 0.17 0.10 80 1015.5
20260506031003 58 236 1.7 6.1 0.00 0.17 0.10 79 1015.5
20260506030504 58 221 1.7 5.2 0.00 0.17 0.10 79 1015.3
20260506030004 58 193 1.7 3.5 0.00 0.17 0.10 80 1015.2
20260506025504 58 227 2.6 7.8 0.00 0.17 0.10 79 1015.3
20260506025004 58 237 2.6 7.8 0.00 0.17 0.10 78 1015.3
20260506024503 58 227 2.6 7.0 0.00 0.17 0.10 79 1015.3
20260506024004 58 236 3.5 10.4 0.00 0.17 0.10 78 1015.2
20260506023504 58 244 3.5 10.4 0.00 0.17 0.10 78 1015.2
20260506023003 58 233 3.5 8.7 0.00 0.17 0.10 77 1015.1
20260506022503 59 216 2.6 7.0 0.00 0.17 0.10 77 1015.1
20260506022004 59 222 3.5 7.8 0.00 0.17 0.10 78 1015.0
20260506021504 59 232 3.5 8.7 0.00 0.17 0.10 77 1015.0
20260506021004 59 232 3.5 9.6 0.00 0.17 0.10 77 1014.9
20260506020524 59 230 3.5 9.6 0.00 0.17 0.10 77 1014.8
20260506020004 59 240 4.3 12.2 0.00 0.17 0.10 77 1014.8
20260506015504 59 245 5.2 12.2 0.00 0.17 0.10 76 1014.7
20260506015004 60 239 4.3 8.7 0.00 0.17 0.10 76 1014.7
20260506014504 60 225 3.5 8.7 0.00 0.17 0.10 76 1014.7
20260506014004 60 231 4.3 9.6 0.00 0.17 0.10 76 1014.6
20260506013504 61 233 5.2 12.2 0.00 0.17 0.10 75 1014.6
20260506013004 61 237 5.2 12.2 0.00 0.17 0.10 75 1014.5
20260506012524 61 243 4.3 10.4 0.00 0.17 0.10 76 1014.6
20260506012003 61 229 3.5 9.6 0.00 0.17 0.10 75 1014.6
20260506011503 61 227 5.2 10.4 0.00 0.17 0.10 75 1014.7
20260506011003 61 230 5.2 10.4 0.00 0.17 0.10 74 1014.6
20260506010504 62 240 5.2 10.4 0.00 0.17 0.10 73 1014.6
20260506010003 62 241 5.2 9.6 0.00 0.17 0.10 73 1014.6
20260506005503 63 233 4.3 8.7 0.00 0.17 0.10 73 1014.6
20260506005004 63 239 3.5 7.8 0.00 0.17 0.10 75 1014.6
20260506004504 62 252 3.5 7.8 0.00 0.17 0.10 75 1014.4
20260506004004 62 244 4.3 8.7 0.00 0.17 0.10 78 1014.4
20260506003504 61 228 4.3 8.7 0.00 0.17 0.10 77 1014.5
20260506003003 61 220 3.5 7.0 0.00 0.17 0.10 77 1014.3
20260506002503 61 230 3.5 7.8 0.00 0.17 0.10 77 1014.3
20260506002004 61 234 3.5 7.8 0.00 0.17 0.10 78 1014.5
20260506001524 61 236 2.6 7.8 0.00 0.17 0.10 78 1014.4
20260506001024 61 229 3.5 7.8 0.00 0.17 0.10 78 1014.4
20260506000503 61 214 4.3 8.7 0.00 0.17 0.10 78 1014.3
20260506000004 61 221 4.3 8.7 0.00 0.17 0.10 77 1014.4
20260505235504 61 233 3.5 7.8 0.00 0.17 0.10 76 1014.4
20260505235004 61 230 2.6 7.8 0.00 0.17 0.10 76 1014.4
20260505234503 61 216 3.5 7.8 0.00 0.17 0.10 77 1014.4
20260505234004 61 216 3.5 7.8 0.00 0.17 0.10 77 1014.3
20260505233503 61 231 3.5 7.8 0.00 0.17 0.10 76 1014.3
20260505233003 61 220 3.5 7.8 0.00 0.17 0.10 76 1014.3
20260505232504 61 225 3.5 7.8 0.00 0.17 0.10 77 1014.4
20260505232004 61 243 3.5 7.8 0.00 0.17 0.10 77 1014.5
20260505231504 61 223 2.6 6.1 0.00 0.17 0.10 77 1014.4
20260505231003 61 206 1.7 4.3 0.00 0.17 0.10 77 1014.4
20260505230503 60 214 2.6 4.3 0.00 0.17 0.10 78 1014.5
20260505230003 60 222 2.6 4.3 0.00 0.17 0.10 78 1014.6
20260505225504 60 243 1.7 3.5 0.00 0.17 0.10 79 1014.5
20260505225025 60 237 1.7 5.2 0.00 0.17 0.10 79 1014.5
20260505224504 60 204 2.6 5.2 0.00 0.17 0.10 79 1014.5
20260505224004 60 202 3.5 7.8 0.00 0.17 0.10 79 1014.6
20260505223503 60 204 4.3 7.8 0.00 0.17 0.10 79 1014.5
20260505223003 60 199 4.3 7.0 0.00 0.17 0.10 79 1014.6
20260505222503 60 199 2.6 7.0 0.00 0.17 0.10 80 1014.6
20260505222004 60 186 2.6 7.0 0.00 0.17 0.10 79 1014.6
20260505221504 60 170 2.6 7.0 0.00 0.17 0.10 80 1014.7
20260505221004 60 174 0.9 4.3 0.00 0.17 0.10 80 1014.7
20260505220503 60 197 1.7 5.2 0.00 0.17 0.10 80 1014.7
20260505220004 60 219 2.6 7.0 0.00 0.17 0.10 80 1014.7
20260505215524 60 226 2.6 7.0 0.00 0.17 0.10 79 1014.7
20260505215003 60 213 1.7 5.2 0.00 0.17 0.10 80 1014.7
20260505214503 60 199 1.7 5.2 0.00 0.17 0.10 81 1014.7
20260505214003 60 200 1.7 4.3 0.00 0.17 0.10 81 1014.8
20260505213524 60 193 2.6 5.2 0.00 0.17 0.10 82 1014.8
20260505213004 60 189 2.6 6.1 0.00 0.17 0.10 82 1014.8
20260505212504 60 193 1.7 6.1 0.00 0.17 0.10 81 1014.8
20260505212004 60 198 1.7 3.5 0.00 0.17 0.10 81 1014.8
20260505211504 60 179 1.7 5.2 0.00 0.17 0.10 80 1014.8
20260505211004 60 164 2.6 5.2 0.00 0.17 0.10 82 1014.9
20260505210504 60 174 3.5 7.0 0.00 0.17 0.10 81 1014.9
20260505210024 60 194 2.6 7.8 0.00 0.17 0.10 81 1014.9
20260505205503 60 191 2.6 7.8 0.00 0.17 0.10 81 1014.9
20260505205004 60 196 2.6 6.1 0.00 0.17 0.10 81 1014.9
20260505204504 60 220 2.6 6.1 0.00 0.17 0.10 82 1014.9
20260505204003 59 216 1.7 4.3 0.00 0.17 0.10 82 1014.9
20260505203503 59 204 1.7 4.3 0.00 0.17 0.10 82 1014.9
20260505203004 59 209 1.7 5.2 0.00 0.17 0.10 83 1014.9
20260505202503 59 208 2.6 7.0 0.00 0.17 0.10 83 1015.0